Location: Dal�� Lhota
(48.7500°N, 14.0167°E)
Time: 08:36:28
(UTC+00:00)

Explorer 7 - Pass Details

Date: 06 August 2021
Orbit: 484 x 676 km, 50.3° (Epoch: 21 September)

Event Time Altitude Azimuth Distance (km) Brightness Sun altitude
Rises 05:37:25 0° 280° (W) 2,580 9.7 16.9°
Reaches altitude 10° 05:39:34 10° 282° (WNW) 1,714 8.8 17.3°
Maximum altitude 05:43:26 74° 7° (N) 547 7.2 17.9°
Drops below altitude 10° 05:47:31 10° 94° (E) 1,806 11.7 18.6°
Sets 05:49:50 0° 96° (E) 2,733 12.0 18.9°
